Printer-friendly version

IAU Minor Planet Center

Minor Planet Center

MPEC 2005-U101: 2005 UV6

The following Minor Planet Electronic Circular may be linked-to from your own Web pages, but must not otherwise be redistributed electronically.


Read MPEC 2005-U100 Read MPEC 2005-U102


M.P.E.C. 2005-U101                               Issued 2005 Oct. 31, 17:49 UT

     The Minor Planet Electronic Circulars contain information on unusual
         minor planets and routine data on comets.  They are published
   on behalf of Commission 20 of the International Astronomical Union by the
          Minor Planet Center, Smithsonian Astrophysical Observatory,
                          Cambridge, MA 02138, U.S.A.

                  Supported in part by the Brinson Foundation
                  Supported in part by the TABASGO Foundation
             Prepared using the Tamkin Foundation Computer Network

                              MPC@CFA.HARVARD.EDU
          URL http://cfa-www.harvard.edu/iau/mpc.html  ISSN 1523-6714

                                   2005 UV6

Observations:
     K05U06V* C2005 10 29.30983 02 02 16.42 +08 46 33.6          19.1 V EU101G96
     K05U06V  C2005 10 29.31750 02 02 39.18 +08 47 12.7          19.0 V EU101G96
     K05U06V  C2005 10 29.33789 02 03 39.75 +08 48 55.3          18.8 V EU101G96
     K05U06V  C2005 10 29.34553 02 04 02.48 +08 49 33.9                 EU101G96
     K05U06V  C2005 10 29.35300 02 04 24.98 +08 50 11.8                 EU101G96
     K05U06V  C2005 10 29.36042 02 04 47.21 +08 50 48.7                 EU101G96
     K05U06V  C2005 10 29.37058 02 05 17.91 +08 51 38.7          18.9 V EU101G96
     K05U06V  C2005 10 29.37088 02 05 18.85 +08 51 40.3          18.8 V EU101G96
     K05U06V  C2005 10 29.37118 02 05 19.75 +08 51 41.5          18.9 V EU101G96
     K05U06V  C2005 10 29.37157 02 05 20.94 +08 51 43.5          18.7 V EU101G96
     K05U06V  C2005 10 29.44472 02 09 07.27 +08 57 38.1          18.8 V EU101G96
     K05U06V  C2005 10 29.44502 02 09 08.28 +08 57 39.7          18.8 V EU101G96
     K05U06V  C2005 10 29.44532 02 09 09.21 +08 57 41.2          18.6 V EU101G96
     K05U06V  C2005 10 30.36428 03 07 15.96 +10 11 00.9          18.8 V EU101G96
     K05U06V  C2005 10 30.36477 03 07 17.94 +10 11 02.9          18.6 V EU101G96
     K05U06V  C2005 10 30.36527 03 07 19.95 +10 11 04.9          18.6 V EU101G96
     K05U06V  C2005 10 30.36577 03 07 21.97 +10 11 06.9          18.6 V EU101G96

Observer details:
G96 Mt. Lemmon Survey.  Observers E. J. Christensen, S. M. Larson,
    R. A. Kowalski.  Measurers E. C. Beshore, E. J. Christensen, G. J. Garradd,
    A. D. Grauer, R. E. Hill, R. A. Kowalski, S. M. Larson, R. H. McNaught.
    1.5-m reflector + CCD.

Orbital elements:
2005 UV6
Epoch 2005 Aug. 18.0 TT = JDT 2453600.5                 MPC
M 333.22996              (2000.0)            P               Q
n   0.30097195     Peri.  202.13125     +0.55417134     -0.83218410
a   2.2052206      Node   214.22348     +0.76870616     +0.52042131
e   0.5525830      Incl.    1.94330     +0.31935085     +0.19139300
P   3.27           H   27.3           G   0.15           U   6
Residuals in seconds of arc
051029 G96  1.2-  0.3-    051029 G96  0.5-  0.1+    051029 G96  0.1-  0.1+
051029 G96  0.5+  0.2-    051029 G96  0.0   0.3+    051030 G96  0.0   0.1-
051029 G96  0.9+  0.5-    051029 G96  0.1-  0.0     051030 G96  0.0   0.1-
051029 G96  0.5-  0.2-    051029 G96  0.0   0.1+    051030 G96  0.1-  0.0
051029 G96  1.1+  0.4+    051029 G96  0.7-  0.2-    051030 G96  0.2-  0.1+
051029 G96  0.4-  0.4+    051029 G96  0.2+  0.0

Ephemeris:
2005 UV6                 a,e,i = 2.21, 0.55, 2                   q = 0.9867
Date    TT    R. A. (2000) Decl.     Delta      r     Elong.  Phase     V
2005 10 27    00 39.23   +06 01.2    0.0239   1.016   157.7    21.8    20.3
2005 10 28    01 07.29   +07 04.9    0.0203   1.013   163.6    16.1    19.7
2005 10 29    01 46.94   +08 23.6    0.0171   1.010   171.9     8.0    19.0
2005 10 30    02 42.63   +09 48.2    0.0146   1.008   172.6     7.3    18.7
2005 10 31    03 55.14   +10 46.6    0.0133   1.005   156.8    22.9    19.0
2005 11 01    05 14.35   +10 38.8    0.0134   1.003   138.5    41.0    19.6
2005 11 02    06 23.76   +09 31.0    0.0150   1.000   122.5    56.8    20.2
2005 11 03    07 15.86   +08 05.7    0.0176   0.998   110.6    68.5    20.9
2005 11 04    07 52.82   +06 49.6    0.0209   0.996   102.3    76.5    21.6
2005 11 05    08 19.13   +05 48.7    0.0245   0.995    96.7    81.9    22.1
2005 11 06    08 38.37   +05 01.2    0.0284   0.993    92.9    85.5    22.6

Kyle E. Smalley              (C) Copyright 2005 MPC           M.P.E.C. 2005-U101

Read MPEC 2005-U100 Read MPEC 2005-U102


Our Web policy. Index to the CBAT/MPC/ICQ pages.


Valid HTML 4.01!